Date String (YYYY-MM-DD hh:mm:ss) UTC,Instrument flags,absolute air pressure of the measurement (hPa),sample flow rate (lpm),inlet stack bypass flow (lpm),air temperature of the measurement (°C),ambient temperature measured by the external sensor (°C),aerosol sample conditioner tube jacket temperature (°C),OPC LED temperature (°C),internal box temperature (°C),relative humidity of the measurement (%),span deviation,mass concentration of particles derived from Lorenz-Mie calculation of OPC scattering (μg/m³),mass concentration of particles derived from Lorenz-Mie calculation of OPC scattering (μg/m³),mass concentration of particles derived from Lorenz-Mie calculation of OPC scattering (μg/m³)
DateTimeUTC,F1_M11,P_M11,Q1_M11,Q2_M11,T1_M11,T2_M11,T3_M11,T4_M11,T5_M11,U1_M11,ZSPAN_M11,X0_M11,X2_M11,X1_M11
2024-05-16 08:00:00,SystemResetWarning,0828.5,5.00,000.00,025.4,024.8,000.0,033.6,027.3,027.4,0000.0,0014.40,0003.53,0002.21
2024-05-16 08:01:00,SystemResetWarning,0828.5,5.00,000.00,025.4,024.9,000.0,033.6,027.3,027.2,0000.0,0013.87,0003.52,0002.20
2024-05-16 08:02:00,SystemResetWarning,0828.6,5.00,000.00,025.5,024.9,000.0,033.6,027.3,027.2,0000.0,0012.80,0003.52,0002.20
2024-05-16 08:03:00,SystemResetWarning,0828.5,5.00,000.00,025.5,024.9,000.0,033.6,027.3,027.1,0000.0,0013.00,0003.57,0002.20
2024-05-16 08:04:00,SystemResetWarning,0828.6,5.00,000.00,025.5,024.9,000.0,033.6,027.3,027.1,0000.0,0012.92,0003.56,0002.21
2024-05-16 08:05:00,SystemResetWarning,0828.5,5.00,000.00,025.5,024.9,000.0,033.7,027.3,027.4,0000.0,0012.63,0003.61,0002.20
2024-05-16 08:06:00,SystemResetWarning,0828.4,5.00,000.00,025.5,025.0,000.0,033.7,027.4,027.5,0000.0,0012.66,0003.62,0002.19
2024-05-16 08:07:00,SystemResetWarning,0828.4,5.00,000.00,025.6,025.0,000.0,033.7,027.4,027.5,0000.0,0012.31,0003.58,0002.17
2024-05-16 08:08:00,SystemResetWarning,0828.4,5.00,000.00,025.6,025.0,000.0,033.7,027.4,027.4,0000.0,0011.78,0003.53,0002.13
2024-05-16 08:09:00,SystemResetWarning,0828.4,5.01,000.00,025.6,025.0,000.0,033.7,027.4,027.5,0000.0,0009.93,0003.49,0002.12
2024-05-16 08:10:00,SystemResetWarning,0828.4,4.99,000.00,025.6,025.0,000.0,033.8,027.4,027.4,0000.0,0009.53,0003.51,0002.13
2024-05-16 08:11:00,SystemResetWarning,0828.4,4.99,000.00,025.6,025.0,000.0,033.8,027.5,027.3,0000.0,0008.73,0003.51,0002.14
2024-05-16 08:12:00,SystemResetWarning,0828.4,4.99,000.00,025.6,025.0,000.0,033.8,027.5,027.3,0000.0,0008.75,0003.48,0002.13
2024-05-16 08:13:00,SystemResetWarning,0828.4,4.99,000.00,025.7,025.1,000.0,033.8,027.5,027.2,0000.0,0008.96,0003.47,0002.13
2024-05-16 08:14:00,SystemResetWarning,0828.4,5.00,000.00,025.7,025.1,000.0,033.8,027.5,027.1,0000.0,0009.97,0003.43,0002.13
2024-05-16 08:15:00,SystemResetWarning,0828.4,5.01,000.00,025.7,025.1,000.0,033.8,027.5,027.0,0000.0,0010.22,0003.42,0002.14
2024-05-16 08:16:00,SystemResetWarning,0828.4,5.01,000.00,025.7,025.1,000.0,033.8,027.5,026.9,0000.0,0009.85,0003.38,0002.14
2024-05-16 08:17:00,SystemResetWarning,0828.4,5.00,000.00,025.7,025.1,000.0,033.9,027.5,026.8,0000.0,0010.08,0003.35,0002.13
2024-05-16 08:18:00,SystemResetWarning,0828.4,4.99,000.00,025.7,025.1,000.0,033.9,027.6,026.8,0000.0,0010.95,0003.42,0002.15
2024-05-16 08:19:00,SystemResetWarning,0828.4,4.99,000.00,025.7,025.1,000.0,033.9,027.6,026.8,0000.0,0010.97,0003.47,0002.16
2024-05-16 08:20:00,SystemResetWarning,0828.4,5.00,000.00,025.7,025.1,000.0,033.9,027.6,026.8,0000.0,0011.00,0003.49,0002.18
2024-05-16 08:21:00,SystemResetWarning,0828.4,5.01,000.00,025.8,025.1,000.0,033.9,027.6,026.8,0000.0,0011.01,0003.49,0002.18
2024-05-16 08:22:00,SystemResetWarning,0828.4,5.01,000.00,025.8,025.1,000.0,033.9,027.6,026.6,0000.0,0011.45,0003.48,0002.18
2024-05-16 08:23:00,SystemResetWarning,0828.4,5.00,000.00,025.8,025.1,000.0,033.9,027.6,026.5,0000.0,0011.86,0003.49,0002.19
2024-05-16 08:24:00,SystemResetWarning,0828.4,5.01,000.00,025.8,025.2,000.0,033.9,027.6,026.5,0000.0,0012.94,0003.47,0002.18
2024-05-16 08:25:00,SystemResetWarning,0828.4,4.99,000.00,025.8,025.2,000.0,034.0,027.6,026.4,0000.0,0012.61,0003.51,0002.19
2024-05-16 08:26:00,SystemResetWarning,0828.4,4.99,000.00,025.8,025.2,000.0,034.0,027.6,026.2,0000.0,0012.51,0003.54,0002.17
2024-05-16 08:27:00,SystemResetWarning,0828.4,5.01,000.00,025.8,025.2,000.0,034.0,027.6,025.8,0000.0,0012.64,0003.55,0002.16
2024-05-16 08:28:00,SystemResetWarning,0828.4,5.01,000.00,025.8,025.2,000.0,034.0,027.6,025.4,0000.0,0012.47,0003.51,0002.15
2024-05-16 08:29:00,SystemResetWarning,0828.4,5.00,000.00,025.8,025.2,000.0,034.0,027.6,025.2,0000.0,0011.16,0003.40,0002.13
2024-05-16 08:30:00,SystemResetWarning,0828.4,5.00,000.00,025.8,025.2,000.0,034.0,027.7,025.2,0000.0,0010.78,0003.31,0002.12
2024-05-16 08:31:00,SystemResetWarning,0828.4,5.00,000.00,025.8,025.2,000.0,034.0,027.6,025.4,0000.0,0010.69,0003.23,0002.08
2024-05-16 08:32:00,SystemResetWarning,0828.4,4.99,000.00,025.8,025.2,000.0,034.1,027.7,025.6,0000.0,0010.57,0003.18,0002.06
2024-05-16 08:33:00,SystemResetWarning,0828.4,5.01,000.00,025.8,025.2,000.0,034.1,027.7,025.7,0000.0,0010.54,0003.15,0002.05
2024-05-16 08:34:00,SystemResetWarning,0828.3,5.01,000.00,025.9,025.2,000.0,034.1,027.6,025.9,0000.0,0010.47,0003.15,0002.02
2024-05-16 08:35:00,SystemResetWarning,0828.4,5.00,000.00,025.8,025.2,000.0,034.1,027.6,026.0,0000.0,0009.38,0003.19,0002.02
2024-05-16 08:36:00,SystemResetWarning,0828.4,5.00,000.00,025.8,025.2,000.0,034.1,027.6,026.1,0000.0,0008.49,0003.14,0002.00
2024-05-16 08:37:00,SystemResetWarning,0828.3,5.00,000.00,025.9,025.2,000.0,034.1,027.6,026.3,0000.0,0008.23,0003.09,0002.01
2024-05-16 08:38:00,SystemResetWarning,0828.3,4.99,000.00,025.8,025.2,000.0,034.1,027.6,026.5,0000.0,0007.91,0002.99,0001.99
2024-05-16 08:39:00,SystemResetWarning,0828.3,4.99,000.00,025.8,025.1,000.0,034.1,027.6,026.6,0000.0,0008.04,0003.02,0001.99
2024-05-16 08:40:00,SystemResetWarning,0828.3,5.01,000.00,025.8,025.1,000.0,034.1,027.6,026.4,0000.0,0008.36,0003.08,0002.00
2024-05-16 08:41:00,SystemResetWarning,0828.3,5.01,000.00,025.8,025.1,000.0,034.1,027.7,026.3,0000.0,0008.70,0003.12,0002.01
2024-05-16 08:42:00,SystemResetWarning,0828.3,5.00,000.00,025.8,025.1,000.0,034.1,027.7,026.2,0000.0,0008.64,0003.15,0002.03
2024-05-16 08:43:00,SystemResetWarning,0828.3,5.00,000.00,025.9,025.2,000.0,034.1,027.6,026.3,0000.0,0009.13,0003.17,0002.03
2024-05-16 08:44:00,SystemResetWarning,0828.3,4.99,000.00,025.8,025.1,000.0,034.1,027.6,026.4,0000.0,0009.05,0003.22,0002.04
2024-05-16 08:45:00,SystemResetWarning,0828.3,4.99,000.00,025.8,025.1,000.0,034.1,027.6,026.6,0000.0,0008.81,0003.23,0002.04
2024-05-16 08:46:00,SystemResetWarning,0828.3,5.01,000.00,025.8,025.1,000.0,034.1,027.6,026.8,0000.0,0008.90,0003.23,0002.05
2024-05-16 08:47:00,SystemResetWarning,0828.3,5.01,000.00,025.8,025.1,000.0,034.1,027.6,026.8,0000.0,0009.18,0003.29,0002.06
2024-05-16 08:48:00,SystemResetWarning,0828.3,5.01,000.00,025.8,025.1,000.0,034.1,027.6,026.9,0000.0,0009.34,0003.34,0002.07
2024-05-16 08:49:00,SystemResetWarning,0828.3,5.00,000.00,025.8,025.1,000.0,034.1,027.6,027.2,0000.0,0009.74,0003.46,0002.10
2024-05-16 08:50:00,SystemResetWarning,0828.3,4.99,000.00,025.8,025.1,000.0,034.1,027.6,027.1,0000.0,0009.91,0003.50,0002.13
2024-05-16 08:51:00,SystemResetWarning,0828.3,5.00,000.00,025.8,025.1,000.0,034.1,027.6,027.3,0000.0,0010.50,0003.52,0002.15
2024-05-16 08:52:00,SystemResetWarning,0828.3,5.00,000.00,025.8,025.1,000.0,034.1,027.6,027.0,0000.0,0010.69,0003.55,0002.15
2024-05-16 08:53:00,SystemResetWarning,0828.3,5.00,000.00,025.8,025.1,000.0,034.1,027.6,026.8,0000.0,0011.57,0003.59,0002.17
2024-05-16 08:54:00,SystemResetWarning,0828.3,4.99,000.00,025.8,025.1,000.0,034.1,027.6,027.1,0000.0,0011.06,0003.56,0002.17
2024-05-16 08:55:00,SystemResetWarning,0828.3,5.00,000.00,025.8,025.1,000.0,034.1,027.6,027.3,0000.0,0010.67,0003.56,0002.18
2024-05-16 08:56:00,SystemResetWarning,0828.3,5.01,000.00,025.8,025.1,000.0,034.1,027.6,027.2,0000.0,0010.86,0003.58,0002.21
2024-05-16 08:57:00,SystemResetWarning,0828.3,5.00,000.00,025.8,025.1,000.0,034.1,027.6,026.8,0000.0,0011.27,0003.56,0002.20
2024-05-16 08:58:00,SystemResetWarning,0828.3,5.00,000.00,025.8,025.1,000.0,034.1,027.6,025.4,0000.0,0010.95,0003.47,0002.19
2024-05-16 08:59:00,SystemResetWarning,0828.3,5.00,000.00,025.8,025.1,000.0,034.1,027.6,025.0,0000.0,0010.65,0003.37,0002.18
